Time,TemperatureF,DewpointF,PressureIn,WindDirection,WindDirectionDegrees,WindSpeedMPH,WindSpeedGustMPH,Humidity,HourlyPrecipIn,Conditions,Clouds,dailyrainin,SoftwareType,DateUTC
2013-02-26 00:01:00,26.0,25.0,30.00,East,89,19.0,23.0,95,0.00,,,0.00,,2013-02-26 05:01:00,
2013-02-26 00:12:00,26.0,25.0,30.00,East,89,19.0,23.0,95,0.00,,,0.00,,2013-02-26 05:12:00,
2013-02-26 00:22:00,27.0,26.0,30.00,NE,50,22.0,31.0,96,0.00,,,0.00,,2013-02-26 05:22:00,
2013-02-26 00:32:00,32.0,31.0,29.98,NE,43,19.0,29.0,97,0.00,,,0.00,,2013-02-26 05:32:00,
2013-02-26 00:43:00,32.0,31.0,29.98,NE,43,19.0,29.0,97,0.00,,,0.00,,2013-02-26 05:43:00,
2013-02-26 00:52:00,26.0,25.0,29.98,ENE,70,18.0,24.0,95,0.00,,,0.00,,2013-02-26 05:52:00,
2013-02-26 01:02:00,27.0,26.0,29.98,ENE,57,17.0,25.0,96,0.00,,,0.00,,2013-02-26 06:02:00,
2013-02-26 01:11:00,27.0,26.0,29.98,ENE,57,17.0,25.0,96,0.00,,,0.00,,2013-02-26 06:11:00,
2013-02-26 01:22:00,28.0,27.0,29.98,NE,54,13.0,29.0,97,0.00,,,0.00,,2013-02-26 06:22:00,
2013-02-26 01:32:00,34.0,34.0,29.93,NE,51,23.0,32.0,98,0.04,,,0.04,,2013-02-26 06:32:00,
2013-02-26 01:42:00,34.0,34.0,29.93,NE,51,23.0,32.0,98,0.04,,,0.04,,2013-02-26 06:42:00,
2013-02-26 01:52:00,28.0,28.0,29.97,ENE,71,16.0,29.0,98,0.06,,,0.06,,2013-02-26 06:52:00,
2013-02-26 02:01:00,28.0,28.0,29.96,ENE,70,17.0,23.0,98,0.06,,,0.06,,2013-02-26 07:01:00,
2013-02-26 02:11:00,28.0,28.0,29.96,ENE,70,17.0,23.0,98,0.06,,,0.06,,2013-02-26 07:11:00,
2013-02-26 02:22:00,27.0,26.0,29.95,NNE,23,20.0,29.0,97,0.06,,,0.06,,2013-02-26 07:22:00,
2013-02-26 02:32:00,27.0,26.0,29.94,NNE,29,20.0,30.0,97,0.02,,,0.06,,2013-02-26 07:32:00,
2013-02-26 02:42:00,27.0,26.0,29.94,NNE,29,20.0,30.0,97,0.02,,,0.06,,2013-02-26 07:42:00,
2013-02-26 02:52:00,27.0,26.0,29.91,NE,56,20.0,29.0,97,0.00,,,0.06,,2013-02-26 07:52:00,
2013-02-26 03:02:00,26.0,25.0,29.92,East,93,16.0,25.0,96,0.00,,,0.06,,2013-02-26 08:02:00,
2013-02-26 03:11:00,26.0,25.0,29.92,East,93,16.0,25.0,96,0.00,,,0.06,,2013-02-26 08:11:00,
2013-02-26 03:21:00,30.0,29.0,29.90,ENE,57,22.0,33.0,98,0.00,,,0.06,,2013-02-26 08:21:00,
2013-02-26 03:32:00,29.0,29.0,29.90,East,84,16.0,23.0,98,0.00,,,0.06,,2013-02-26 08:32:00,
2013-02-26 03:42:00,29.0,29.0,29.90,East,84,16.0,23.0,98,0.00,,,0.06,,2013-02-26 08:42:00,
2013-02-26 03:52:00,29.0,28.0,29.88,NE,55,13.0,18.0,97,0.00,,,0.06,,2013-02-26 08:52:00,
2013-02-26 04:02:00,29.0,28.0,29.90,ENE,57,12.0,24.0,97,0.00,,,0.06,,2013-02-26 09:02:00,
2013-02-26 04:11:00,29.0,28.0,29.90,ENE,57,12.0,24.0,97,0.00,,,0.06,,2013-02-26 09:11:00,
2013-02-26 04:21:00,31.0,31.0,29.91,ENE,57,10.0,15.0,98,0.00,,,0.06,,2013-02-26 09:21:00,
2013-02-26 04:32:00,30.0,29.0,29.91,ENE,57,11.0,16.0,98,0.00,,,0.06,,2013-02-26 09:32:00,
2013-02-26 04:43:00,30.0,29.0,29.91,ENE,57,11.0,16.0,98,0.00,,,0.06,,2013-02-26 09:43:00,
2013-02-26 04:52:00,29.0,29.0,29.89,ENE,57,11.0,16.0,98,0.00,,,0.06,,2013-02-26 09:52:00,
2013-02-26 05:01:00,31.0,31.0,29.88,ENE,57,12.0,16.0,98,0.00,,,0.06,,2013-02-26 10:01:00,
2013-02-26 05:11:00,31.0,31.0,29.88,ENE,57,12.0,16.0,98,0.00,,,0.06,,2013-02-26 10:11:00,
2013-02-26 05:21:00,30.0,29.0,29.88,ENE,57,8.0,12.0,98,0.00,,,0.06,,2013-02-26 10:21:00,
2013-02-26 05:32:00,28.0,27.0,29.89,NE,55,1.0,8.0,97,0.00,,,0.06,,2013-02-26 10:32:00,
2013-02-26 05:42:00,28.0,27.0,29.89,NE,55,1.0,8.0,97,0.00,,,0.06,,2013-02-26 10:42:00,
2013-02-26 05:52:00,30.0,29.0,29.87,NE,56,0.0,0.0,98,0.00,,,0.06,,2013-02-26 10:52:00,
2013-02-26 06:01:00,28.0,27.0,29.87,NE,56,0.0,0.0,97,0.00,,,0.06,,2013-02-26 11:01:00,
2013-02-26 06:12:00,28.0,27.0,29.87,NE,56,0.0,0.0,97,0.00,,,0.06,,2013-02-26 11:12:00,
2013-02-26 06:22:00,28.0,28.0,29.84,NE,56,0.0,0.0,98,0.00,,,0.06,,2013-02-26 11:22:00,
2013-02-26 06:32:00,28.0,27.0,29.83,NE,56,0.0,0.0,97,0.00,,,0.06,,2013-02-26 11:32:00,
2013-02-26 06:42:00,28.0,27.0,29.83,NE,56,0.0,0.0,97,0.00,,,0.06,,2013-02-26 11:42:00,
2013-02-26 06:53:00,28.0,27.0,29.83,NE,56,0.0,0.0,97,0.00,,,0.06,,2013-02-26 11:53:00,
2013-02-26 07:02:00,28.0,27.0,29.84,NE,56,0.0,0.0,97,0.00,,,0.06,,2013-02-26 12:02:00,
2013-02-26 07:11:00,28.0,27.0,29.84,NE,56,0.0,0.0,97,0.00,,,0.06,,2013-02-26 12:11:00,
2013-02-26 07:22:00,30.0,29.0,29.83,NE,55,0.0,0.0,98,0.00,,,0.06,,2013-02-26 12:22:00,
2013-02-26 07:32:00,30.0,29.0,29.82,NE,56,0.0,0.0,98,0.00,,,0.06,,2013-02-26 12:32:00,
2013-02-26 07:42:00,30.0,29.0,29.82,NE,56,0.0,0.0,98,0.00,,,0.06,,2013-02-26 12:42:00,
2013-02-26 07:53:00,29.0,29.0,29.81,NE,56,0.0,0.0,98,0.00,,,0.06,,2013-02-26 12:53:00,
2013-02-26 08:02:00,29.0,28.0,29.80,NE,56,0.0,0.0,97,0.00,,,0.06,,2013-02-26 13:02:00,
2013-02-26 08:11:00,29.0,28.0,29.80,NE,56,0.0,0.0,97,0.00,,,0.06,,2013-02-26 13:11:00,
2013-02-26 08:22:00,29.0,29.0,29.80,NE,56,0.0,0.0,98,0.00,,,0.06,,2013-02-26 13:22:00,
2013-02-26 08:32:00,29.0,29.0,29.80,NE,56,0.0,0.0,98,0.00,,,0.06,,2013-02-26 13:32:00,
2013-02-26 08:42:00,29.0,29.0,29.80,NE,56,0.0,0.0,98,0.00,,,0.06,,2013-02-26 13:42:00,
2013-02-26 08:52:00,32.0,32.0,29.81,NE,55,0.0,0.0,98,0.00,,,0.06,,2013-02-26 13:52:00,
2013-02-26 09:01:00,32.0,32.0,29.81,NE,56,0.0,0.0,98,0.00,,,0.06,,2013-02-26 14:01:00,
2013-02-26 09:11:00,32.0,32.0,29.81,NE,56,0.0,0.0,98,0.00,,,0.06,,2013-02-26 14:11:00,
2013-02-26 09:22:00,32.0,32.0,29.80,NE,56,0.0,0.0,98,0.00,,,0.06,,2013-02-26 14:22:00,
2013-02-26 09:32:00,33.0,32.0,29.80,NE,56,0.0,0.0,98,0.00,,,0.06,,2013-02-26 14:32:00,
2013-02-26 09:42:00,33.0,32.0,29.80,NE,56,0.0,0.0,98,0.00,,,0.06,,2013-02-26 14:42:00,
2013-02-26 09:52:00,31.0,31.0,29.76,NE,55,0.0,0.0,98,0.00,,,0.06,,2013-02-26 14:52:00,
2013-02-26 10:02:00,32.0,32.0,29.77,NE,56,0.0,0.0,98,0.00,,,0.06,,2013-02-26 15:02:00,
2013-02-26 10:11:00,32.0,32.0,29.77,NE,56,0.0,0.0,98,0.00,,,0.06,,2013-02-26 15:11:00,
2013-02-26 10:22:00,33.0,33.0,29.75,NE,56,0.0,0.0,99,0.00,,,0.06,,2013-02-26 15:22:00,
2013-02-26 10:32:00,33.0,33.0,29.74,NE,56,0.0,0.0,99,0.00,,,0.06,,2013-02-26 15:32:00,
2013-02-26 10:42:00,33.0,33.0,29.74,NE,56,0.0,0.0,99,0.00,,,0.06,,2013-02-26 15:42:00,
2013-02-26 10:52:00,32.0,32.0,29.74,NE,56,0.0,0.0,99,0.00,,,0.06,,2013-02-26 15:52:00,
2013-02-26 11:02:00,33.0,33.0,29.72,ENE,57,0.0,0.0,99,0.00,,,0.06,,2013-02-26 16:02:00,
2013-02-26 11:11:00,33.0,33.0,29.72,ENE,57,0.0,0.0,99,0.00,,,0.06,,2013-02-26 16:11:00,
2013-02-26 11:22:00,31.0,31.0,29.67,ENE,57,0.0,0.0,99,0.00,,,0.06,,2013-02-26 16:22:00,
2013-02-26 11:32:00,32.0,32.0,29.67,ENE,57,0.0,0.0,99,0.00,,,0.06,,2013-02-26 16:32:00,
2013-02-26 11:42:00,32.0,32.0,29.67,ENE,57,0.0,0.0,99,0.00,,,0.06,,2013-02-26 16:42:00,
2013-02-26 11:52:00,32.0,32.0,29.68,ENE,57,0.0,0.0,99,0.00,,,0.06,,2013-02-26 16:52:00,
2013-02-26 12:01:00,32.0,32.0,29.68,ENE,57,0.0,0.0,99,0.00,,,0.06,,2013-02-26 17:01:00,
2013-02-26 12:11:00,32.0,32.0,29.68,ENE,57,0.0,0.0,99,0.00,,,0.06,,2013-02-26 17:11:00,
2013-02-26 12:22:00,33.0,33.0,29.68,ENE,57,0.0,0.0,99,0.00,,,0.06,,2013-02-26 17:22:00,
2013-02-26 12:32:00,33.0,33.0,29.67,NE,56,0.0,0.0,99,0.00,,,0.06,,2013-02-26 17:32:00,
2013-02-26 12:42:00,33.0,33.0,29.67,NE,56,0.0,0.0,99,0.00,,,0.06,,2013-02-26 17:42:00,
2013-02-26 12:52:00,35.0,35.0,29.66,ENE,74,0.0,0.0,99,0.00,,,0.06,,2013-02-26 17:52:00,
2013-02-26 13:02:00,36.0,36.0,29.66,ENE,59,0.0,0.0,99,0.00,,,0.06,,2013-02-26 18:02:00,
2013-02-26 13:21:00,38.0,38.0,29.65,East,79,0.0,0.0,99,0.00,,,0.06,,2013-02-26 18:21:00,
2013-02-26 13:32:00,41.0,41.0,29.65,ESE,103,0.0,0.0,99,0.00,,,0.06,,2013-02-26 18:32:00,
2013-02-26 13:53:00,39.0,39.0,29.65,East,91,11.0,22.0,99,0.00,,,0.06,,2013-02-26 18:53:00,
2013-02-26 14:01:00,39.0,39.0,29.63,East,88,14.0,18.0,99,0.00,,,0.06,,2013-02-26 19:01:00,
2013-02-26 14:22:00,39.0,39.0,29.63,ESE,115,18.0,25.0,99,0.06,,,0.12,,2013-02-26 19:22:00,